Theta_e
318 317 316 317 316 317 317 318 320 318 318 320 320 318 318 314 312 311 311 311 311 311 310 311 311 313 314 315 317 322 333 339 340 341 340 339 339 340 340 340 339 339 339 337
321 314 313 315 317 318 318 318 319 317 317 319 318 319 317 317 315 312 311 310 310 310 309 308 311 311 313 313 314 315 315 316 318 327 338 339 339 339 339 339 339 338 337 337
317 317 315 317 318 319 318 317 317 318 315 314 317 318 317 315 313 313 311 309 309 308 309 309 311 313 313 313 314 314 313 313 313 313 315 318 324 330 334 336 336 336 336 337
318 315 316 318 319 317 319 315 315 316 317 320 316 320 313 314 314 312 311 308 308 306 308 310 311 313 314 314 314 315 314 314 313 314 313 312 313 314 317 321 321 322 324 328
317 317 317 318 318 315 317 313 314 315 316 315 314 316 313 309 313 314 312 307 306 305 308 310 312 314 315 314 314 314 314 314 313 314 314 313 312 311 311 311 312 313 314 315
317 313 315 317 316 315 316 313 313 313 314 316 315 315 313 309 309 312 309 305 304 308 309 310 313 314 313 313 313 313 313 312 313 313 313 313 313 313 312 313 314 314 314 316
318 316 315 314 316 317 315 314 316 319 320 318 312 314 317 310 308 308 308 305 303 307 309 310 310 311 312 312 311 311 311 311 312 313 313 313 314 314 314 314 314 314 315 315
319 320 316 313 315 316 315 312 312 318 319 316 311 316 314 310 308 306 306 306 307 309 309 310 310 311 311 310 310 310 309 309 310 311 312 312 313 313 313 313 312 312 312 312
314 316 314 316 315 315 317 319 309 307 305 308 310 309 307 309 309 307 309 310 311 311 309 309 309 310 310 310 309 309 308 307 308 309 309 309 309 310 310 309 309 309 309 309
310 316 313 315 315 315 317 313 315 304 309 314 311 310 311 311 309 308 310 311 311 311 310 309 308 309 309 309 308 307 306 306 306 306 306 306 306 305 305 305 305 305 305 305
308 311 314 316 317 318 319 319 314 310 307 312 312 310 304 305 308 310 311 312 311 311 310 308 307 309 309 307 306 305 305 304 304 304 303 303 303 303 302 302 302 303 303 303
311 311 315 316 313 315 317 318 311 310 310 303 304 307 304 302 307 310 311 311 310 311 308 306 306 308 307 306 305 304 304 304 303 302 302 301 301 301 301 300 300 300 301 300
311 311 315 315 313 314 318 317 313 307 303 303 307 309 304 304 307 309 309 310 310 311 307 304 303 305 305 304 303 303 302 302 301 301 300 299 299 299 298 298 298 298 298 298
311 309 308 310 309 312 317 318 313 309 307 308 306 309 308 308 307 309 309 310 311 310 307 304 303 303 303 302 302 302 301 301 300 299 298 298 297 296 296 296 296 296 296 297
308 310 306 311 311 307 310 314 316 308 315 313 315 310 309 307 307 308 309 309 311 309 306 304 304 302 302 301 301 301 300 300 299 298 297 296 295 296 296 296 295 294 294 293
305 306 303 306 310 309 309 310 314 314 312 313 312 310 307 307 307 308 309 310 311 310 307 304 303 302 301 301 301 300 300 299 298 297 296 295 295 295 295 294 294 294 294 293
307 305 303 304 308 307 308 307 309 311 308 311 312 314 307 305 307 307 306 309 311 309 307 304 302 301 301 301 301 300 299 298 297 296 295 295 294 294 294 293 293 293 292 292
305 304 304 304 304 305 306 307 307 309 310 308 308 308 307 306 306 306 306 308 309 309 305 303 301 301 301 301 300 299 298 297 296 295 295 294 293 293 292 292 292 291 291 292
305 305 307 307 303 305 308 308 308 308 308 307 308 308 306 308 309 311 310 309 309 305 302 302 302 300 300 300 299 298 297 296 295 295 294 293 293 292 292 291 290 289 290 290
305 304 305 305 309 311 308 310 306 307 310 309 305 306 306 309 311 309 307 304 302 302 302 300 299 299 299 298 298 297 296 295 295 294 294 293 292 292 291 290 289 289 288 287
310 311 307 308 305 306 305 309 307 310 309 309 305 305 307 310 307 307 301 301 300 300 299 299 298 298 298 297 297 296 295 295 294 294 293 292 292 292 292 289 288 287 287 287
308 310 310 306 308 306 307 310 311 308 310 309 306 305 308 308 306 303 302 300 299 299 298 298 297 297 297 297 296 295 294 295 294 293 292 292 292 292 291 289 288 288 288 288
308 305 307 306 306 304 305 308 308 308 310 310 309 308 307 308 307 304 303 301 299 299 299 298 298 297 296 296 296 295 294 294 294 292 292 292 292 292 290 288 288 287 286 286
306 303 306 307 307 305 306 308 309 308 309 308 308 307 307 308 307 307 305 303 300 300 299 298 297 296 295 295 295 295 294 294 293 292 292 292 292 291 291 288 287 287 287 286
305 305 305 305 305 305 306 307 308 307 306 305 304 305 306 306 306 307 307 306 304 301 300 299 297 296 296 296 295 294 294 294 293 292 292 291 291 291 290 287 286 286 286 285
303 306 306 306 304 305 306 306 305 305 305 304 304 303 302 302 303 303 302 303 303 302 301 299 298 297 296 296 295 295 294 294 293 292 291 291 291 291 288 287 286 285 285 285
Wind_Speed
8 4 21 22 8 1 7 6 12 1 8 12 11 6 6 6 5 7 9 8 8 7 1 2 7 11 11 9 9 9 12 18 20 20 19 20 25 26 25 25 25 24 22 22
6 12 13 8 8 4 10 5 8 2 4 11 4 7 7 7 6 6 8 8 9 5 5 6 8 10 8 9 8 7 6 5 6 12 19 19 17 20 25 24 23 23 24 26
2 10 10 10 5 6 2 6 5 6 4 3 4 5 6 9 3 4 6 6 6 9 8 6 8 9 9 9 7 5 3 3 5 6 7 9 12 14 16 17 16 17 18 20
1 12 12 12 5 4 4 3 5 7 5 4 4 4 7 7 11 7 10 8 8 8 5 5 8 9 8 7 5 5 5 3 2 3 6 9 11 11 11 9 10 10 10 12
4 18 14 10 6 5 3 2 5 3 3 3 2 1 6 1 8 18 13 8 8 8 9 9 10 12 9 7 5 4 3 4 4 1 1 2 4 6 8 9 11 14 14 12
6 4 4 3 4 3 4 5 6 5 3 2 5 5 5 6 7 4 8 9 9 9 8 8 11 11 10 7 5 4 3 4 3 2 2 1 1 2 2 2 2 3 4 6
12 4 2 3 7 2 3 5 2 2 1 5 2 5 12 6 6 6 8 7 8 7 8 8 8 10 8 6 5 5 5 7 5 4 3 3 3 2 2 1 2 3 3 3
4 5 2 4 3 5 3 4 4 5 4 3 3 8 5 6 5 7 7 7 9 9 8 8 10 12 10 8 6 6 6 6 5 5 5 5 4 3 3 2 2 3 4 5
4 3 2 4 1 2 4 3 3 6 3 3 5 7 8 4 5 2 6 8 9 9 8 8 11 12 11 8 7 6 6 6 5 5 4 4 3 2 2 2 3 4 4 5
3 5 1 1 2 2 2 2 1 3 3 4 4 5 6 4 7 6 9 9 8 7 7 7 10 12 11 9 8 7 5 4 4 3 3 3 3 3 2 2 2 3 3 4
4 3 3 6 6 7 2 2 2 3 4 4 2 5 6 6 7 10 11 11 10 9 8 7 9 11 12 11 10 8 6 4 3 2 1 1 2 3 3 3 3 3 3 4
2 4 5 2 3 3 4 4 6 4 4 1 2 5 2 6 7 8 6 8 8 7 8 7 11 13 13 12 10 8 5 4 3 2 1 3 3 4 4 4 4 4 4 5
5 2 4 1 2 2 6 6 4 3 3 6 4 5 2 4 4 6 8 7 7 6 7 6 8 11 14 14 12 9 7 6 4 3 2 3 4 5 5 5 5 5 6 7
5 3 5 7 5 4 6 9 7 6 4 4 6 5 4 2 6 5 6 7 7 8 8 6 6 9 14 14 12 10 9 7 5 4 3 3 4 5 5 5 5 6 7 8
3 4 3 2 1 3 3 9 17 9 14 9 7 8 6 6 9 9 8 6 7 7 7 7 6 7 13 14 13 10 9 8 7 5 3 3 4 3 2 4 6 9 11 10
2 1 2 2 2 4 4 7 12 16 8 8 11 7 6 2 4 5 8 8 7 8 7 7 6 9 13 15 15 12 10 9 8 6 4 3 2 3 4 6 8 10 11 12
3 5 3 4 3 3 6 8 11 6 6 11 11 15 4 6 7 9 8 8 10 8 8 8 8 12 16 17 16 14 12 10 8 6 3 2 3 5 6 7 9 10 11 12
4 4 2 2 2 1 5 1 4 11 4 11 6 5 6 6 10 6 6 8 8 8 8 7 10 11 13 14 14 13 12 10 9 7 5 4 6 7 8 9 10 11 11 12
3 4 2 3 3 6 3 2 4 5 6 13 14 11 5 3 3 1 4 4 6 7 6 10 14 14 15 16 15 14 12 11 10 8 7 7 8 9 9 9 9 10 11 11
4 5 4 1 1 4 3 2 3 3 5 4 8 8 7 6 5 4 5 4 5 8 10 13 14 14 14 15 15 15 13 10 9 8 8 8 10 11 11 11 11 12 13 13
2 1 4 3 2 6 6 3 4 4 5 4 4 6 6 5 4 2 6 4 7 9 11 12 15 14 14 15 15 13 11 11 10 10 11 11 12 11 11 10 11 14 11 11
5 5 3 3 2 6 3 2 4 5 3 3 1 5 6 4 4 5 6 6 7 8 10 11 12 11 12 14 15 13 12 10 11 13 14 14 13 12 11 10 12 11 9 8
2 6 4 7 5 4 5 5 2 3 1 2 2 2 5 6 4 5 5 5 6 9 9 11 12 10 12 14 16 15 13 13 14 15 16 15 15 13 12 13 12 10 9 8
3 3 3 1 2 5 5 3 2 2 1 2 4 5 2 4 5 4 5 4 4 6 9 12 12 12 14 15 16 16 15 16 17 18 18 18 18 15 13 14 12 11 11 11
4 4 4 4 5 5 4 5 3 3 4 4 4 3 4 4 3 2 1 3 6 12 13 14 17 17 18 17 18 17 17 19 20 19 19 20 20 16 16 15 13 12 11 11
4 6 4 5 6 4 5 1 5 7 5 5 4 4 3 4 3 2 1 2 4 9 13 16 19 19 20 20 20 19 19 23 22 21 22 22 21 20 18 16 13 11 10 10
Wind_Direction
206 165 183 192 177 278 140 122 195 153 182 187 215 179 240 203 193 230 232 229 238 222 126 116 142 166 172 169 180 190 206 222 233 232 236 241 242 242 244 248 248 250 251 250
203 188 178 133 164 113 146 140 178 117 152 187 187 212 231 261 237 204 231 223 219 199 133 120 133 151 149 138 135 148 170 189 214 228 236 241 249 252 254 258 259 259 262 262
212 155 161 158 162 113 143 152 165 159 114 56 114 288 215 247 242 230 235 233 218 195 167 147 142 137 137 129 125 127 152 205 227 235 235 236 240 249 255 260 264 265 266 267
236 159 141 141 150 117 101 174 134 122 127 202 160 264 257 227 242 242 235 219 210 170 149 154 153 146 141 127 121 118 109 105 196 237 251 250 251 255 259 262 268 275 280 273
206 143 140 146 154 125 98 143 163 120 106 124 233 172 256 178 223 234 229 216 210 185 167 168 164 147 134 126 111 91 90 84 71 93 229 258 257 253 259 264 264 263 266 273
85 63 75 117 69 130 120 82 58 62 95 276 193 180 254 214 210 218 226 210 191 180 162 158 152 142 128 118 105 91 94 72 67 80 90 168 240 250 254 297 326 317 281 262
97 53 52 46 89 48 87 86 53 59 209 223 253 191 246 249 234 224 241 207 181 170 152 151 152 150 140 125 106 96 100 79 72 73 74 73 80 99 98 57 24 12 359 327
105 142 51 337 127 159 147 145 151 180 196 236 118 241 241 232 238 252 237 180 156 160 164 163 164 161 154 139 123 118 105 87 73 73 72 69 77 83 84 61 18 355 346 333
124 82 82 29 88 93 175 165 188 105 24 55 222 293 293 227 265 207 166 143 165 167 165 164 164 163 157 148 137 133 119 97 89 90 84 72 65 59 42 8 341 329 331 324
138 104 0 117 59 58 76 146 139 5 144 237 257 271 246 271 256 194 162 167 162 161 158 163 164 158 156 152 146 141 129 114 106 103 88 61 46 31 18 355 336 336 341 344
135 104 147 143 198 191 158 191 153 137 155 207 254 257 217 265 251 201 180 169 167 170 171 166 165 162 160 158 155 148 143 141 137 121 92 41 23 12 7 5 9 7 5 14
158 109 150 154 332 208 225 228 190 155 221 249 157 273 309 289 248 160 169 165 170 174 166 167 167 163 165 166 164 163 159 161 146 126 76 55 43 36 31 30 31 32 36 41
182 111 102 66 336 213 223 195 206 113 73 204 147 258 333 2 167 160 163 178 169 161 151 158 160 172 174 173 172 169 167 164 158 151 118 80 60 51 48 47 50 55 58 61
104 136 165 194 203 147 194 201 197 173 196 179 224 277 316 307 217 202 183 182 172 171 169 174 175 181 184 179 175 171 168 171 170 161 131 88 61 52 39 46 65 77 76 76
104 165 134 300 174 119 222 206 209 204 219 205 230 216 242 235 214 197 182 170 157 172 180 187 182 181 181 177 175 176 179 177 173 164 147 107 84 65 67 71 74 79 83 82
30 179 91 319 197 204 244 222 214 221 238 254 256 260 236 272 129 169 180 174 188 196 192 188 185 180 184 187 185 180 181 178 174 164 149 121 117 119 108 102 98 97 95 91
120 135 104 260 333 316 288 219 193 201 198 211 224 244 195 201 194 203 203 192 199 194 185 187 188 191 193 192 189 187 180 176 172 163 149 119 159 140 123 120 115 110 107 105
129 110 115 180 19 327 244 264 209 213 223 215 259 198 202 218 219 204 204 195 199 187 183 181 179 188 191 186 186 185 180 176 173 164 168 162 163 147 137 131 127 127 120 112
144 128 110 147 190 285 292 187 159 168 272 217 227 225 209 153 104 283 195 201 205 177 163 182 185 183 182 183 184 182 178 178 176 176 181 175 166 153 151 146 142 140 134 127
95 95 114 121 161 240 262 318 160 125 292 311 219 202 178 149 173 237 180 150 134 146 161 164 169 171 178 181 181 179 184 184 187 188 189 180 175 169 165 159 150 141 136 128
160 120 172 194 244 286 250 246 144 84 252 309 217 188 156 175 193 175 129 105 139 148 155 164 170 176 185 184 186 186 186 198 203 190 184 178 178 178 176 168 162 152 149 146
168 171 195 160 201 274 200 96 176 225 281 301 41 160 160 140 115 132 133 139 149 156 161 174 174 183 189 194 191 191 194 201 198 189 183 179 178 182 183 176 163 163 173 180
217 184 188 180 213 231 226 220 243 198 246 19 68 84 127 131 157 162 169 165 182 185 184 193 192 188 194 199 203 199 202 200 193 193 188 183 185 190 192 183 182 183 193 213
238 173 207 99 257 248 254 247 253 214 140 76 80 102 102 128 138 157 139 160 187 207 209 207 201 201 205 206 210 216 204 201 198 196 194 192 192 196 199 198 205 213 223 230
210 137 193 254 284 297 258 227 188 137 115 104 73 72 90 102 98 116 195 224 222 230 222 215 213 212 219 211 210 212 209 201 197 196 198 201 200 203 209 213 220 230 237 242
188 196 172 226 225 186 246 235 173 157 168 158 131 111 72 76 101 72 263 262 252 237 229 221 221 222 224 216 213 212 208 202 201 198 204 208 206 209 216 218 222 231 238 245